| time (UTC) | temp F | wind direction | speed MPH | gust MPH | rain 1hr in | rain 24hr in | rain mn in | humidity % | barometer mb |
| 20260904160502 | 77 | 330 | 8.0 | 0.0 | 0.00 | 0.00 | 0.00 | 44 | 1014.0 |
| 20260904153502 | 79 | 300 | 3.0 | 0.0 | 0.00 | 0.00 | 0.00 | 39 | 1014.0 |
| 20260904150502 | 81 | 300 | 5.0 | 0.0 | 0.00 | 0.00 | 0.00 | 37 | 1014.0 |
| 20260904143502 | 82 | 280 | 3.0 | 0.0 | 0.00 | 0.00 | 0.00 | 32 | 1014.0 |
| 20260904140502 | 82 | 320 | 6.0 | 0.0 | 0.00 | 0.00 | 0.00 | 35 | 1015.0 |
| 20260904133502 | 82 | 170 | 6.0 | 0.0 | 0.00 | 0.00 | 0.00 | 32 | 1014.0 |
| 20260904130502 | 82 | 8.0 | 0.0 | 0.00 | 0.00 | 0.00 | 32 | 1015.0 | |
| 20260904123502 | 82 | 270 | 7.0 | 0.0 | 0.00 | 0.00 | 0.00 | 30 | 1015.0 |
| 20260904120502 | 82 | 240 | 6.0 | 0.0 | 0.00 | 0.00 | 0.00 | 32 | 1015.0 |
| 20260904113503 | 81 | 6.0 | 0.0 | 0.00 | 0.00 | 0.00 | 37 | 1015.0 | |
| 20260904110502 | 81 | 280 | 5.0 | 0.0 | 0.00 | 0.00 | 0.00 | 37 | 1016.0 |
| 20260904103502 | 81 | 200 | 6.0 | 0.0 | 0.00 | 0.00 | 0.00 | 39 | 1016.0 |
| 20260904100502 | 79 | 210 | 3.0 | 0.0 | 0.00 | 0.00 | 0.00 | 42 | 1016.0 |
| 20260904093502 | 77 | 5.0 | 0.0 | 0.00 | 0.00 | 0.00 | 44 | 1016.0 | |
| 20260904090502 | 77 | 5.0 | 0.0 | 0.00 | 0.00 | 0.00 | 42 | 1017.0 | |
| 20260904083502 | 75 | 230 | 5.0 | 0.0 | 0.00 | 0.00 | 0.00 | 47 | 1017.0 |
| 20260904080502 | 75 | 2.0 | 0.0 | 0.00 | 0.00 | 0.00 | 50 | 1017.0 | |
| 20260904073504 | 72 | 3.0 | 0.0 | 0.00 | 0.00 | 0.00 | 57 | 1017.0 | |
| 20260904070503 | 70 | 240 | 5.0 | 0.0 | 0.00 | 0.00 | 0.00 | 57 | 1017.0 |
| 20260904063502 | 68 | 210 | 3.0 | 0.0 | 0.00 | 0.00 | 0.00 | 60 | 1017.0 |
| 20260904060502 | 64 | 250 | 3.0 | 0.0 | 0.00 | 0.00 | 0.00 | 73 | 1017.0 |
| 20260904053503 | 63 | 220 | 3.0 | 0.0 | 0.00 | 0.00 | 0.00 | ||
| 20260904050502 | 63 | 2.0 | 0.0 | 0.00 | 0.00 | 0.00 | 77 | 1017.0 | |
| 20260904043502 | 59 | 190 | 3.0 | 0.0 | 0.00 | 0.00 | 0.00 | 82 | 1017.0 |
| 20260904040504 | 59 | 230 | 3.0 | 0.0 | 0.00 | 0.00 | 0.00 | 82 | 1017.0 |
| 20260904033502 | 59 | 260 | 3.0 | 0.0 | 0.00 | 0.00 | 0.00 | 82 | 1017.0 |
| 20260904030502 | 59 | 270 | 6.0 | 0.0 | 0.00 | 0.00 | 0.00 | 82 | 1017.0 |
| 20260904023502 | 59 | 250 | 5.0 | 0.0 | 0.00 | 0.00 | 0.00 | 82 | 1017.0 |
| 20260904020502 | 61 | 260 | 6.0 | 0.0 | 0.00 | 0.00 | 0.00 | 77 | 1017.0 |
| 20260904013502 | 61 | 210 | 5.0 | 0.0 | 0.00 | 0.00 | 0.00 | 77 | 1016.0 |
| 20260904010502 | 61 | 220 | 5.0 | 0.0 | 0.00 | 0.00 | 0.00 | 77 | 1017.0 |
| 20260904003503 | 61 | 240 | 6.0 | 0.0 | 0.00 | 0.00 | 0.00 | 77 | 1017.0 |
| 20260904000502 | 61 | 240 | 5.0 | 0.0 | 0.00 | 0.00 | 0.00 | 83 | 1017.0 |
| 20260903233502 | 61 | 280 | 5.0 | 0.0 | 0.00 | 0.00 | 0.00 | 83 | 1017.0 |
| 20260903230502 | 63 | 270 | 7.0 | 0.0 | 0.00 | 0.00 | 0.00 | 73 | 1017.0 |
| 20260903223503 | 64 | 240 | 5.0 | 0.0 | 0.00 | 0.00 | 0.00 | 68 | 1017.0 |
| 20260903220503 | 64 | 2.0 | 0.0 | 0.00 | 0.00 | 0.00 | 73 | 1017.0 | |
| 20260903213502 | 64 | 2.0 | 0.0 | 0.00 | 0.00 | 0.00 | 73 | 1017.0 | |
| 20260903210502 | 70 | 240 | 5.0 | 0.0 | 0.00 | 0.00 | 0.00 | ||
| 20260903203503 | 70 | 240 | 6.0 | 0.0 | 0.00 | 0.00 | 0.00 | 57 | 1017.0 |
| 20260903200502 | 70 | 220 | 3.0 | 0.0 | 0.00 | 0.00 | 0.00 | 57 | 1017.0 |
| 20260903193501 | 70 | 220 | 5.0 | 0.0 | 0.00 | 0.00 | 0.00 | 57 | 1017.0 |
| 20260903190502 | 68 | 230 | 5.0 | 0.0 | 0.00 | 0.00 | 0.00 | 60 | 1017.0 |
| 20260903183502 | 68 | 2.0 | 0.0 | 0.00 | 0.00 | 0.00 | 60 | 1017.0 | |
| 20260903180502 | 72 | 330 | 5.0 | 0.0 | 0.00 | 0.00 | 0.00 | 50 | 1017.0 |
| 20260903173502 | 73 | 330 | 5.0 | 0.0 | 0.00 | 0.00 | 0.00 | 47 | 1017.0 |
| 20260903170502 | 75 | 360 | 3.0 | 0.0 | 0.00 | 0.00 | 0.00 | 41 | 1017.0 |
| 20260903163502 | 75 | 360 | 6.0 | 0.0 | 0.00 | 0.00 | 0.00 | 44 | 1017.0 |